| time (UTC) | temp F | wind direction | speed MPH | gust MPH | rain 1hr in | rain 24hr in | rain mn in | humidity % | barometer mb |
| 20260509053504 | 65 | 305 | 1.0 | 13.0 | 0.00 | 1.03 | 0.00 | 95 | 1012.3 |
| 20260509053016 | 65 | 346 | 6.0 | 13.0 | 0.00 | 1.03 | 0.00 | 95 | 1012.4 |
| 20260509052502 | 65 | 360 | 6.0 | 11.0 | 0.00 | 1.03 | 0.00 | 94 | 1012.1 |
| 20260509052008 | 65 | 306 | 1.0 | 13.0 | 0.01 | 1.03 | 0.00 | 95 | 1012.0 |
| 20260509051520 | 65 | 172 | 7.0 | 17.0 | 0.01 | 1.03 | 0.00 | 95 | 1011.3 |
| 20260509051007 | 65 | 135 | 7.0 | 17.0 | 0.01 | 1.03 | 0.00 | 95 | 1010.7 |
| 20260509050506 | 65 | 179 | 8.0 | 15.0 | 0.01 | 1.03 | 0.00 | 95 | 1010.7 |
| 20260509050035 | 65 | 178 | 8.0 | 11.0 | 0.01 | 1.03 | 0.00 | 95 | 1011.3 |
| 20260509045506 | 65 | 163 | 6.0 | 10.0 | 0.01 | 1.03 | 1.03 | 95 | 1012.1 |
| 20260509045007 | 65 | 149 | 6.0 | 10.0 | 0.01 | 1.03 | 1.03 | 95 | 1012.2 |
| 20260509044527 | 65 | 192 | 2.0 | 12.0 | 0.01 | 1.03 | 1.03 | 95 | 1012.3 |
| 20260509044007 | 65 | 173 | 6.0 | 12.0 | 0.01 | 1.03 | 1.03 | 95 | 1012.0 |
| 20260509043506 | 64 | 162 | 9.0 | 12.0 | 0.01 | 1.03 | 1.03 | 95 | 1011.8 |
| 20260509043027 | 64 | 162 | 7.0 | 14.0 | 0.01 | 1.03 | 1.03 | 95 | 1012.2 |
| 20260509042503 | 64 | 178 | 7.0 | 15.0 | 0.01 | 1.03 | 1.03 | 95 | 1012.3 |
| 20260509042007 | 64 | 184 | 8.0 | 15.0 | 0.00 | 1.02 | 1.02 | 95 | 1012.1 |
| 20260509041518 | 64 | 138 | 9.0 | 15.0 | 0.00 | 1.02 | 1.02 | 95 | 1012.1 |
| 20260509041004 | 64 | 142 | 6.0 | 15.0 | 0.00 | 1.02 | 1.02 | 95 | 1012.5 |
| 20260509040507 | 64 | 121 | 5.0 | 15.0 | 0.00 | 1.02 | 1.02 | 96 | 1013.0 |
| 20260509040023 | 64 | 119 | 7.0 | 15.0 | 0.00 | 1.02 | 1.02 | 96 | 1012.9 |
| 20260509035510 | 64 | 194 | 8.0 | 15.0 | 0.00 | 1.02 | 1.02 | 96 | 1013.4 |
| 20260509035007 | 64 | 167 | 7.0 | 15.0 | 0.00 | 1.02 | 1.02 | 96 | 1013.2 |
| 20260509034526 | 64 | 174 | 10.0 | 15.0 | 0.00 | 1.02 | 1.02 | 96 | 1013.2 |
| 20260509034010 | 64 | 170 | 8.0 | 12.0 | 0.00 | 1.02 | 1.02 | 96 | 1013.4 |
| 20260509033510 | 64 | 153 | 7.0 | 9.0 | 0.00 | 1.02 | 1.02 | 96 | 1013.8 |
| 20260509033028 | 64 | 150 | 2.0 | 3.0 | 0.00 | 1.02 | 1.02 | 96 | 1014.0 |
| 20260509032511 | 64 | 317 | 0.0 | 2.0 | 0.00 | 1.02 | 1.02 | 96 | 1014.3 |
| 20260509032005 | 64 | 331 | 0.0 | 3.0 | 0.00 | 1.02 | 1.02 | 96 | 1014.4 |
| 20260509031522 | 64 | 331 | 1.0 | 3.0 | 0.00 | 1.02 | 1.02 | 96 | 1014.2 |
| 20260509031003 | 64 | 165 | 0.0 | 4.0 | 0.00 | 1.02 | 1.02 | 96 | 1014.4 |
| 20260509030508 | 65 | 180 | 2.0 | 4.0 | 0.00 | 1.02 | 1.02 | 96 | 1015.0 |
| 20260509030032 | 65 | 159 | 3.0 | 4.0 | 0.00 | 1.02 | 1.02 | 96 | 1015.2 |
| 20260509025507 | 64 | 211 | 0.0 | 1.0 | 0.00 | 1.02 | 1.02 | 96 | 1015.1 |
| 20260509025007 | 64 | 211 | 0.0 | 1.0 | 0.00 | 1.02 | 1.02 | 96 | 1014.7 |
| 20260509024525 | 64 | 273 | 0.0 | 0.0 | 0.00 | 1.02 | 1.02 | 96 | 1014.6 |
| 20260509024006 | 64 | 273 | 0.0 | 4.0 | 0.00 | 1.02 | 1.02 | 96 | 1014.6 |
| 20260509023503 | 64 | 273 | 0.0 | 4.0 | 0.00 | 1.02 | 1.02 | 96 | 1014.5 |
| 20260509023015 | 64 | 344 | 2.0 | 4.0 | 0.00 | 1.02 | 1.02 | 96 | 1014.2 |
| 20260509022504 | 64 | 331 | 2.0 | 3.0 | 0.00 | 1.02 | 1.02 | 96 | 1013.5 |
| 20260509022004 | 64 | 348 | 2.0 | 5.0 | 0.00 | 1.02 | 1.02 | 96 | 1013.5 |
| 20260509021514 | 65 | 181 | 1.0 | 6.0 | 0.00 | 1.02 | 1.02 | 96 | 1013.8 |
| 20260509021003 | 64 | 143 | 4.0 | 6.0 | 0.00 | 1.02 | 1.02 | 96 | 1013.9 |
| 20260509020508 | 64 | 99 | 2.0 | 6.0 | 0.00 | 1.02 | 1.02 | 96 | 1013.5 |
| 20260509020020 | 64 | 102 | 2.0 | 8.0 | 0.00 | 1.02 | 1.02 | 96 | 1013.6 |
| 20260509015505 | 64 | 128 | 4.0 | 8.0 | 0.00 | 1.02 | 1.02 | 96 | 1013.5 |
| 20260509015005 | 64 | 134 | 4.0 | 7.0 | 0.00 | 1.02 | 1.02 | 96 | 1013.5 |
| 20260509014523 | 64 | 122 | 4.0 | 7.0 | 0.00 | 1.02 | 1.02 | 96 | 1013.6 |
| 20260509014007 | 64 | 127 | 3.0 | 7.0 | 0.00 | 1.02 | 1.02 | 96 | 1013.8 |
| 20260509013508 | 65 | 106 | 4.0 | 7.0 | 0.00 | 1.02 | 1.02 | 96 | 1013.9 |
| 20260509013026 | 65 | 117 | 4.0 | 6.0 | 0.00 | 1.02 | 1.02 | 96 | 1014.3 |
| 20260509012504 | 65 | 122 | 3.0 | 4.0 | 0.00 | 1.02 | 1.02 | 96 | 1014.3 |
| 20260509012004 | 65 | 122 | 2.0 | 3.0 | 0.00 | 1.02 | 1.02 | 96 | 1014.5 |
| 20260509011512 | 65 | 100 | 1.0 | 2.0 | 0.00 | 1.02 | 1.02 | 96 | 1014.7 |
| 20260509011005 | 65 | 124 | 0.0 | 1.0 | 0.00 | 1.02 | 1.02 | 96 | 1015.0 |
| 20260509010503 | 65 | 124 | 0.0 | 2.0 | 0.00 | 1.02 | 1.02 | 96 | 1015.1 |
| 20260509010019 | 65 | 124 | 1.0 | 2.0 | 0.00 | 1.02 | 1.02 | 96 | 1015.0 |
| 20260509005504 | 66 | 130 | 1.0 | 2.0 | 0.00 | 1.02 | 1.02 | 96 | 1015.0 |
| 20260509005006 | 66 | 130 | 2.0 | 2.0 | 0.00 | 1.02 | 1.02 | 96 | 1014.9 |
| 20260509004534 | 66 | 87 | 0.0 | 0.0 | 0.00 | 1.02 | 1.02 | 96 | 1014.9 |
| 20260509004005 | 66 | 87 | 0.0 | 2.0 | 0.00 | 1.02 | 1.02 | 96 | 1015.0 |
| 20260509003506 | 66 | 76 | 0.0 | 2.0 | 0.00 | 1.02 | 1.02 | 96 | 1015.2 |
| 20260509003025 | 66 | 9 | 0.0 | 2.0 | 0.00 | 1.02 | 1.02 | 96 | 1015.2 |
| 20260509002511 | 66 | 78 | 0.0 | 2.0 | 0.00 | 1.02 | 1.02 | 96 | 1015.3 |
| 20260509002006 | 66 | 25 | 1.0 | 3.0 | 0.00 | 1.02 | 1.02 | 96 | 1015.3 |
| 20260509001510 | 66 | 331 | 0.0 | 3.0 | 0.00 | 1.02 | 1.02 | 96 | 1015.4 |
| 20260509001005 | 66 | 10 | 1.0 | 3.0 | 0.00 | 1.02 | 1.02 | 96 | 1015.2 |
| 20260509000502 | 66 | 22 | 0.0 | 3.0 | 0.00 | 1.02 | 1.02 | 96 | 1015.0 |
| 20260509000024 | 66 | 86 | 2.0 | 3.0 | 0.00 | 1.02 | 1.02 | 96 | 1014.9 |
| 20260508235503 | 66 | 75 | 1.0 | 3.0 | 0.00 | 1.02 | 1.02 | 96 | 1015.1 |
| 20260508235006 | 66 | 12 | 0.0 | 2.0 | 0.00 | 1.02 | 1.02 | 96 | 1015.0 |
| 20260508234521 | 66 | 33 | 0.0 | 4.0 | 0.00 | 1.02 | 1.02 | 96 | 1015.1 |
| 20260508234005 | 66 | 39 | 2.0 | 4.0 | 0.00 | 1.02 | 1.02 | 96 | 1015.0 |
| 20260508233510 | 66 | 44 | 0.0 | 3.0 | 0.01 | 1.02 | 1.02 | 96 | 1015.2 |
| 20260508233024 | 66 | 38 | 0.0 | 4.0 | 0.01 | 1.02 | 1.02 | 96 | 1015.4 |
| 20260508232505 | 66 | 126 | 1.0 | 5.0 | 0.02 | 1.02 | 1.02 | 96 | 1015.5 |
| 20260508232008 | 66 | 327 | 2.0 | 5.0 | 0.04 | 1.02 | 1.02 | 96 | 1015.4 |
| 20260508231524 | 66 | 306 | 3.0 | 5.0 | 0.06 | 1.02 | 1.02 | 96 | 1015.4 |
| 20260508231008 | 66 | 19 | 2.0 | 4.0 | 0.06 | 1.02 | 1.02 | 96 | 1015.3 |
| 20260508230502 | 66 | 9 | 2.0 | 4.0 | 0.07 | 1.02 | 1.02 | 96 | 1015.2 |
| 20260508230012 | 66 | 99 | 3.0 | 4.0 | 0.07 | 1.02 | 1.02 | 96 | 1015.0 |
| 20260508225503 | 66 | 98 | 1.0 | 3.0 | 0.07 | 1.02 | 1.02 | 96 | 1015.3 |
| 20260508225008 | 66 | 56 | 1.0 | 4.0 | 0.07 | 1.02 | 1.02 | 96 | 1015.2 |
| 20260508224517 | 66 | 9 | 1.0 | 4.0 | 0.07 | 1.02 | 1.02 | 96 | 1015.3 |
| 20260508224007 | 66 | 5 | 1.0 | 8.0 | 0.07 | 1.02 | 1.02 | 96 | 1015.5 |
| 20260508223507 | 66 | 309 | 2.0 | 8.0 | 0.07 | 1.01 | 1.01 | 96 | 1015.4 |
| 20260508223031 | 66 | 300 | 5.0 | 8.0 | 0.07 | 1.01 | 1.01 | 96 | 1015.5 |
| 20260508222507 | 66 | 336 | 2.0 | 4.0 | 0.06 | 1.00 | 1.00 | 95 | 1014.8 |
| 20260508222008 | 66 | 163 | 4.0 | 4.0 | 0.06 | 0.98 | 0.98 | 95 | 1014.5 |
| 20260508221525 | 66 | 147 | 0.0 | 3.0 | 0.17 | 0.96 | 0.96 | 95 | 1014.2 |
| 20260508221008 | 66 | 159 | 2.0 | 3.0 | 0.43 | 0.96 | 0.96 | 95 | 1014.2 |
| 20260508220508 | 66 | 206 | 1.0 | 4.0 | 0.61 | 0.95 | 0.95 | 95 | 1014.1 |
| 20260508220026 | 66 | 89 | 3.0 | 5.0 | 0.69 | 0.95 | 0.95 | 95 | 1013.6 |
| 20260508215503 | 66 | 77 | 3.0 | 7.0 | 0.70 | 0.95 | 0.95 | 95 | 1013.5 |
| 20260508215004 | 66 | 90 | 3.0 | 7.0 | 0.71 | 0.95 | 0.95 | 95 | 1013.6 |
| 20260508214518 | 66 | 82 | 3.0 | 7.0 | 0.72 | 0.95 | 0.95 | 95 | 1013.6 |
| 20260508214006 | 66 | 64 | 2.0 | 5.0 | 0.74 | 0.95 | 0.95 | 95 | 1013.7 |
| 20260508213505 | 66 | 43 | 1.0 | 8.0 | 0.76 | 0.94 | 0.94 | 95 | 1013.9 |
| 20260508213024 | 66 | 323 | 3.0 | 11.0 | 0.82 | 0.94 | 0.94 | 95 | 1014.0 |
| 20260508212509 | 66 | 20 | 3.0 | 11.0 | 0.92 | 0.94 | 0.94 | 95 | 1013.9 |
| 20260508212009 | 66 | 41 | 4.0 | 12.0 | 0.90 | 0.92 | 0.92 | 94 | 1013.8 |
| 20260508211524 | 67 | 59 | 7.0 | 12.0 | 0.77 | 0.79 | 0.79 | 94 | 1014.1 |
| 20260508211006 | 67 | 9 | 4.0 | 11.0 | 0.52 | 0.52 | 0.52 | 94 | 1015.6 |
| 20260508210507 | 67 | 248 | 4.0 | 11.0 | 0.34 | 0.34 | 0.34 | 94 | 1016.0 |
| 20260508210029 | 68 | 298 | 4.0 | 11.0 | 0.26 | 0.26 | 0.26 | 93 | 1014.7 |
| 20260508205508 | 68 | 360 | 8.0 | 11.0 | 0.25 | 0.25 | 0.25 | 94 | 1013.9 |
| 20260508205002 | 69 | 331 | 4.0 | 9.0 | 0.24 | 0.24 | 0.24 | 94 | 1013.8 |
| 20260508204513 | 69 | 5 | 3.0 | 9.0 | 0.23 | 0.23 | 0.23 | 94 | 1013.7 |
| 20260508204006 | 69 | 9 | 2.0 | 10.0 | 0.21 | 0.21 | 0.21 | 93 | 1013.8 |
| 20260508203506 | 70 | 9 | 5.0 | 9.0 | 0.18 | 0.18 | 0.18 | 93 | 1014.0 |
| 20260508203021 | 70 | 301 | 5.0 | 9.0 | 0.12 | 0.12 | 0.12 | 92 | 1014.2 |
| 20260508202506 | 71 | 263 | 3.0 | 6.0 | 0.02 | 0.02 | 0.02 | 91 | 1013.9 |
| 20260508202006 | 71 | 311 | 2.0 | 3.0 | 0.02 | 0.02 | 0.02 | 90 | 1013.2 |
| 20260508201526 | 72 | 344 | 0.0 | 1.0 | 0.02 | 0.02 | 0.02 | 89 | 1012.9 |
| 20260508201012 | 72 | 257 | 0.0 | 4.0 | 0.01 | 0.01 | 0.01 | 88 | 1012.9 |
| 20260508200506 | 72 | 117 | 1.0 | 4.0 | 0.00 | 0.00 | 0.00 | 87 | 1012.5 |
| 20260508200031 | 72 | 86 | 2.0 | 5.0 | 0.00 | 0.00 | 0.00 | 86 | 1012.5 |
| 20260508195506 | 72 | 76 | 4.0 | 5.0 | 0.00 | 0.00 | 0.00 | 86 | 1012.7 |
| 20260508195007 | 72 | 105 | 2.0 | 3.0 | 0.00 | 0.00 | 0.00 | 85 | 1013.0 |
| 20260508194552 | 72 | 78 | 2.0 | 3.0 | 0.00 | 0.00 | 0.00 | 85 | 1013.2 |
| 20260508194005 | 72 | 58 | 2.0 | 3.0 | 0.00 | 0.00 | 0.00 | 84 | 1013.3 |
| 20260508193506 | 72 | 78 | 0.0 | 2.0 | 0.00 | 0.00 | 0.00 | 84 | 1013.6 |
| 20260508193021 | 72 | 73 | 0.0 | 2.0 | 0.00 | 0.00 | 0.00 | 84 | 1013.8 |
| 20260508192506 | 72 | 79 | 0.0 | 2.0 | 0.00 | 0.00 | 0.00 | 84 | 1013.9 |
| 20260508192007 | 72 | 35 | 0.0 | 2.0 | 0.00 | 0.00 | 0.00 | 84 | 1013.9 |
| 20260508191523 | 73 | 121 | 2.0 | 2.0 | 0.00 | 0.00 | 0.00 | 84 | 1013.8 |
| 20260508191007 | 73 | 111 | 1.0 | 2.0 | 0.00 | 0.00 | 0.00 | 84 | 1013.9 |
| 20260508190510 | 73 | 73 | 1.0 | 2.0 | 0.00 | 0.00 | 0.00 | 84 | 1013.9 |
| 20260508190026 | 73 | 121 | 0.0 | 0.0 | 0.00 | 0.00 | 0.00 | 83 | 1014.1 |
| 20260508185508 | 72 | 138 | 0.0 | 0.0 | 0.00 | 0.00 | 0.00 | 82 | 1014.1 |
| 20260508185011 | 72 | 152 | 0.0 | 0.0 | 0.00 | 0.00 | 0.00 | 83 | 1014.2 |
| 20260508184532 | 72 | 131 | 0.0 | 3.0 | 0.00 | 0.00 | 0.00 | 83 | 1014.1 |
| 20260508184012 | 72 | 175 | 0.0 | 4.0 | 0.00 | 0.01 | 0.00 | 83 | 1014.2 |
| 20260508183509 | 72 | 129 | 1.0 | 5.0 | 0.00 | 0.01 | 0.00 | 83 | 1014.1 |
| 20260508183016 | 72 | 144 | 2.0 | 5.0 | 0.00 | 0.01 | 0.00 | 82 | 1014.1 |
| 20260508182508 | 73 | 134 | 4.0 | 5.0 | 0.00 | 0.01 | 0.00 | 82 | 1014.1 |
| 20260508182007 | 73 | 146 | 2.0 | 6.0 | 0.00 | 0.01 | 0.00 | 82 | 1014.1 |
| 20260508181532 | 73 | 134 | 4.0 | 6.0 | 0.00 | 0.01 | 0.00 | 80 | 1014.1 |
| 20260508181009 | 73 | 126 | 1.0 | 5.0 | 0.00 | 0.01 | 0.00 | 80 | 1014.3 |
| 20260508180509 | 73 | 133 | 3.0 | 5.0 | 0.00 | 0.01 | 0.00 | 79 | 1014.3 |
| 20260508180006 | 73 | 146 | 3.0 | 5.0 | 0.00 | 0.01 | 0.00 | 80 | 1014.4 |
| 20260508175503 | 73 | 172 | 3.0 | 5.0 | 0.00 | 0.01 | 0.00 | 79 | 1014.5 |
| 20260508175004 | 73 | 92 | 3.0 | 4.0 | 0.00 | 0.01 | 0.00 | 79 | 1014.6 |
| 20260508174510 | 73 | 128 | 1.0 | 7.0 | 0.00 | 0.01 | 0.00 | 78 | 1014.7 |
| 20260508174003 | 73 | 101 | 4.0 | 7.0 | 0.00 | 0.01 | 0.00 | 78 | 1014.9 |
| 20260508173503 | 73 | 134 | 2.0 | 7.0 | 0.00 | 0.01 | 0.00 | 78 | 1015.0 |
| 20260508173026 | 73 | 150 | 2.0 | 8.0 | 0.00 | 0.01 | 0.00 | 77 | 1015.1 |
| 20260508172503 | 73 | 154 | 3.0 | 8.0 | 0.00 | 0.01 | 0.00 | 77 | 1015.2 |
| 20260508172003 | 73 | 146 | 3.0 | 6.0 | 0.00 | 0.01 | 0.00 | 79 | 1015.2 |
| 20260508171522 | 73 | 98 | 4.0 | 6.0 | 0.00 | 0.01 | 0.00 | 80 | 1015.2 |
| 20260508171003 | 73 | 135 | 2.0 | 6.0 | 0.00 | 0.01 | 0.00 | 79 | 1015.3 |
| 20260508170502 | 73 | 169 | 3.0 | 7.0 | 0.00 | 0.01 | 0.00 | 79 | 1015.2 |
| 20260508170006 | 72 | 84 | 2.0 | 7.0 | 0.00 | 0.01 | 0.00 | 80 | 1015.2 |
| 20260508165504 | 72 | 140 | 4.0 | 6.0 | 0.00 | 0.01 | 0.00 | 80 | 1015.2 |
| 20260508165004 | 72 | 155 | 3.0 | 6.0 | 0.00 | 0.02 | 0.00 | 80 | 1015.2 |
| 20260508164515 | 71 | 113 | 4.0 | 6.0 | 0.00 | 0.03 | 0.00 | 80 | 1015.2 |
| 20260508164004 | 71 | 99 | 3.0 | 6.0 | 0.00 | 0.05 | 0.00 | 81 | 1015.3 |
| 20260508163504 | 71 | 105 | 2.0 | 4.0 | 0.00 | 0.08 | 0.00 | 81 | 1015.4 |
| 20260508163018 | 71 | 105 | 3.0 | 4.0 | 0.00 | 0.09 | 0.00 | 82 | 1015.5 |
| 20260508162504 | 71 | 148 | 2.0 | 6.0 | 0.00 | 0.09 | 0.00 | 80 | 1015.6 |
| 20260508162004 | 71 | 61 | 2.0 | 6.0 | 0.00 | 0.11 | 0.00 | 82 | 1015.6 |
| 20260508161521 | 71 | 112 | 2.0 | 7.0 | 0.00 | 0.24 | 0.00 | 81 | 1015.6 |
| 20260508161003 | 71 | 112 | 2.0 | 7.0 | 0.00 | 0.37 | 0.00 | 81 | 1015.6 |
| 20260508160503 | 71 | 87 | 4.0 | 8.0 | 0.00 | 0.49 | 0.00 | 80 | 1015.6 |
| 20260508160021 | 71 | 97 | 5.0 | 9.0 | 0.00 | 0.54 | 0.00 | 79 | 1015.6 |
| 20260508155503 | 71 | 87 | 5.0 | 9.0 | 0.00 | 0.55 | 0.00 | 79 | 1015.6 |
| 20260508155004 | 71 | 44 | 5.0 | 9.0 | 0.00 | 0.56 | 0.00 | 79 | 1015.7 |
| 20260508154508 | 71 | 80 | 3.0 | 8.0 | 0.00 | 1.04 | 0.00 | 80 | 1015.5 |
| 20260508154004 | 71 | 71 | 3.0 | 7.0 | 0.00 | 1.58 | 0.00 | 81 | 1015.6 |
| 20260508153505 | 71 | 42 | 3.0 | 7.0 | 0.00 | 1.58 | 0.00 | 81 | 1015.6 |
| 20260508153012 | 70 | 70 | 3.0 | 7.0 | 0.00 | 1.58 | 0.00 | 81 | 1015.7 |
| 20260508152502 | 70 | 88 | 3.0 | 7.0 | 0.00 | 1.58 | 0.00 | 82 | 1015.9 |
| 20260508152006 | 70 | 91 | 4.0 | 7.0 | 0.00 | 1.58 | 0.00 | 82 | 1015.7 |
| 20260508151512 | 70 | 111 | 2.0 | 4.0 | 0.00 | 1.58 | 0.00 | 81 | 1015.9 |
| 20260508151004 | 70 | 12 | 3.0 | 5.0 | 0.00 | 1.58 | 0.00 | 82 | 1015.8 |
| 20260508150504 | 70 | 59 | 2.0 | 7.0 | 0.00 | 1.58 | 0.00 | 82 | 1015.9 |
| 20260508150015 | 70 | 73 | 3.0 | 7.0 | 0.00 | 1.58 | 0.00 | 82 | 1015.9 |
| 20260508145504 | 70 | 74 | 2.0 | 5.0 | 0.00 | 1.58 | 0.00 | 82 | 1016.0 |
| 20260508145004 | 70 | 5 | 1.0 | 8.0 | 0.00 | 1.58 | 0.00 | 82 | 1016.0 |
| 20260508144507 | 70 | 57 | 3.0 | 8.0 | 0.00 | 1.58 | 0.00 | 81 | 1016.1 |
| 20260508144003 | 70 | 82 | 3.0 | 8.0 | 0.00 | 1.58 | 0.00 | 82 | 1016.2 |
| 20260508143504 | 69 | 40 | 3.0 | 8.0 | 0.00 | 1.58 | 0.00 | 82 | 1016.1 |
| 20260508143018 | 69 | 15 | 3.0 | 9.0 | 0.00 | 1.58 | 0.00 | 82 | 1015.8 |
| 20260508142503 | 69 | 5 | 5.0 | 9.0 | 0.00 | 1.58 | 0.00 | 82 | 1016.0 |
| 20260508142004 | 69 | 65 | 3.0 | 9.0 | 0.00 | 1.58 | 0.00 | 82 | 1015.9 |
| 20260508141516 | 69 | 53 | 5.0 | 9.0 | 0.00 | 1.58 | 0.00 | 83 | 1015.7 |
| 20260508141006 | 69 | 62 | 2.0 | 7.0 | 0.00 | 1.58 | 0.00 | 83 | 1016.0 |
| 20260508140502 | 69 | 76 | 4.0 | 7.0 | 0.00 | 1.58 | 0.00 | 82 | 1016.1 |
| 20260508140016 | 69 | 49 | 4.0 | 7.0 | 0.00 | 1.58 | 0.00 | 82 | 1016.1 |
| 20260508135504 | 69 | 53 | 2.0 | 8.0 | 0.00 | 1.58 | 0.00 | 83 | 1016.1 |
| 20260508135003 | 69 | 360 | 4.0 | 8.0 | 0.00 | 1.58 | 0.00 | 83 | 1015.9 |
| 20260508134517 | 69 | 73 | 4.0 | 8.0 | 0.00 | 1.58 | 0.00 | 83 | 1015.8 |
| 20260508134007 | 69 | 19 | 3.0 | 5.0 | 0.00 | 1.58 | 0.00 | 83 | 1015.7 |
| 20260508133503 | 68 | 60 | 3.0 | 6.0 | 0.00 | 1.58 | 0.00 | 84 | 1015.6 |
| 20260508133013 | 68 | 52 | 3.0 | 6.0 | 0.00 | 1.58 | 0.00 | 84 | 1015.9 |
| 20260508132505 | 68 | 127 | 4.0 | 6.0 | 0.00 | 1.58 | 0.00 | 84 | 1015.6 |
| 20260508132002 | 68 | 41 | 4.0 | 6.0 | 0.00 | 1.58 | 0.00 | 85 | 1015.4 |
| 20260508131512 | 68 | 85 | 3.0 | 10.0 | 0.00 | 1.58 | 0.00 | 85 | 1015.6 |
| 20260508131005 | 68 | 28 | 5.0 | 10.0 | 0.00 | 1.58 | 0.00 | 85 | 1015.5 |
| 20260508130505 | 68 | 111 | 4.0 | 9.0 | 0.00 | 1.58 | 0.00 | 86 | 1015.5 |
| 20260508130024 | 68 | 97 | 3.0 | 9.0 | 0.00 | 1.58 | 0.00 | 86 | 1015.6 |
| 20260508125507 | 68 | 75 | 5.0 | 9.0 | 0.00 | 1.58 | 0.00 | 86 | 1015.6 |
| 20260508125008 | 67 | 87 | 3.0 | 8.0 | 0.00 | 1.58 | 0.00 | 86 | 1015.7 |
| 20260508124517 | 67 | 75 | 2.0 | 8.0 | 0.00 | 1.58 | 0.00 | 87 | 1015.9 |
| 20260508124007 | 67 | 26 | 4.0 | 8.0 | 0.00 | 1.58 | 0.00 | 86 | 1015.8 |
| 20260508123504 | 67 | 71 | 4.0 | 6.0 | 0.00 | 1.58 | 0.00 | 87 | 1015.8 |
| 20260508123008 | 67 | 75 | 2.0 | 5.0 | 0.00 | 1.58 | 0.00 | 87 | 1016.1 |
| 20260508122503 | 67 | 24 | 2.0 | 4.0 | 0.00 | 1.58 | 0.00 | 87 | 1016.1 |
| 20260508122005 | 67 | 5 | 0.0 | 4.0 | 0.00 | 1.58 | 0.00 | 88 | 1016.1 |
| 20260508121512 | 67 | 14 | 1.0 | 5.0 | 0.00 | 1.58 | 0.00 | 88 | 1016.1 |
| 20260508121005 | 67 | 40 | 1.0 | 5.0 | 0.00 | 1.58 | 0.00 | 87 | 1016.2 |
| 20260508120503 | 67 | 90 | 1.0 | 4.0 | 0.00 | 1.58 | 0.00 | 88 | 1015.9 |
| 20260508120017 | 67 | 50 | 2.0 | 4.0 | 0.00 | 1.58 | 0.00 | 88 | 1015.8 |
| 20260508115506 | 67 | 360 | 2.0 | 4.0 | 0.00 | 1.58 | 0.00 | 87 | 1015.8 |
| 20260508115005 | 67 | 352 | 1.0 | 3.0 | 0.00 | 1.58 | 0.00 | 87 | 1015.9 |
| 20260508114517 | 67 | 61 | 1.0 | 5.0 | 0.00 | 1.58 | 0.00 | 87 | 1015.9 |
| 20260508114006 | 67 | 307 | 2.0 | 5.0 | 0.00 | 1.58 | 0.00 | 87 | 1015.9 |
| 20260508113507 | 67 | 352 | 3.0 | 5.0 | 0.00 | 1.58 | 0.00 | 87 | 1015.7 |
| 20260508113021 | 67 | 343 | 2.0 | 6.0 | 0.00 | 1.58 | 0.00 | 87 | 1015.4 |
| 20260508112508 | 67 | 23 | 3.0 | 6.0 | 0.00 | 1.58 | 0.00 | 88 | 1015.2 |
| 20260508112004 | 67 | 352 | 2.0 | 5.0 | 0.00 | 1.58 | 0.00 | 88 | 1015.1 |
| 20260508111512 | 67 | 19 | 1.0 | 6.0 | 0.00 | 1.58 | 0.00 | 88 | 1015.0 |
| 20260508111005 | 67 | 15 | 4.0 | 6.0 | 0.00 | 1.58 | 0.00 | 88 | 1014.7 |
| 20260508110504 | 67 | 44 | 1.0 | 4.0 | 0.00 | 1.58 | 0.00 | 88 | 1014.5 |
| 20260508110017 | 67 | 29 | 2.0 | 4.0 | 0.00 | 1.58 | 0.00 | 88 | 1014.6 |
| 20260508105507 | 67 | 5 | 1.0 | 3.0 | 0.00 | 1.58 | 0.00 | 88 | 1014.9 |
| 20260508105009 | 67 | 24 | 0.0 | 2.0 | 0.00 | 1.58 | 0.00 | 88 | 1014.6 |
| 20260508104523 | 67 | 38 | 1.0 | 3.0 | 0.00 | 1.58 | 0.00 | 88 | 1014.4 |
| 20260508104006 | 67 | 66 | 0.0 | 3.0 | 0.00 | 1.58 | 0.00 | 89 | 1014.2 |
| 20260508103507 | 67 | 40 | 0.0 | 3.0 | 0.00 | 1.58 | 0.00 | 88 | 1014.1 |
| 20260508103024 | 67 | 65 | 1.0 | 3.0 | 0.00 | 1.58 | 0.00 | 89 | 1014.0 |
| 20260508102511 | 67 | 69 | 1.0 | 5.0 | 0.00 | 1.58 | 0.00 | 89 | 1014.0 |
| 20260508102007 | 67 | 46 | 3.0 | 5.0 | 0.00 | 1.58 | 0.00 | 89 | 1014.2 |
| 20260508101521 | 67 | 57 | 0.0 | 3.0 | 0.00 | 1.58 | 0.00 | 89 | 1014.1 |
| 20260508101004 | 67 | 55 | 1.0 | 3.0 | 0.00 | 1.58 | 0.00 | 89 | 1014.2 |
| 20260508100504 | 67 | 32 | 2.0 | 3.0 | 0.00 | 1.58 | 0.00 | 89 | 1014.2 |
| 20260508100018 | 67 | 19 | 1.0 | 3.0 | 0.00 | 1.58 | 0.00 | 89 | 1014.2 |
| 20260508095505 | 67 | 27 | 0.0 | 4.0 | 0.00 | 1.58 | 0.00 | 89 | 1014.2 |
| 20260508095006 | 67 | 50 | 2.0 | 4.0 | 0.00 | 1.58 | 0.00 | 89 | 1013.8 |
| 20260508094521 | 67 | 43 | 2.0 | 4.0 | 0.00 | 1.58 | 0.00 | 89 | 1013.9 |
| 20260508094013 | 67 | 29 | 2.0 | 4.0 | 0.00 | 1.58 | 0.00 | 89 | 1013.9 |
| 20260508093507 | 68 | 9 | 3.0 | 4.0 | 0.00 | 1.58 | 0.00 | 89 | 1013.7 |
| 20260508093025 | 68 | 31 | 2.0 | 4.0 | 0.00 | 1.58 | 0.00 | 89 | 1013.5 |
| 20260508092507 | 68 | 63 | 2.0 | 3.0 | 0.00 | 1.58 | 0.00 | 89 | 1013.5 |
| 20260508092007 | 68 | 318 | 1.0 | 2.0 | 0.00 | 1.58 | 0.00 | 89 | 1013.7 |
| 20260508091527 | 68 | 40 | 1.0 | 2.0 | 0.00 | 1.58 | 0.00 | 89 | 1013.6 |
| 20260508091008 | 68 | 12 | 1.0 | 2.0 | 0.00 | 1.58 | 0.00 | 89 | 1013.7 |
| 20260508090510 | 68 | 360 | 1.0 | 2.0 | 0.00 | 1.58 | 0.00 | 89 | 1013.8 |
| 20260508090021 | 68 | 346 | 1.0 | 4.0 | 0.00 | 1.58 | 0.00 | 89 | 1013.7 |
| 20260508085504 | 68 | 35 | 0.0 | 4.0 | 0.00 | 1.58 | 0.00 | 89 | 1013.8 |
| 20260508085004 | 68 | 36 | 1.0 | 3.0 | 0.00 | 1.58 | 0.00 | 89 | 1013.7 |
| 20260508084520 | 68 | 360 | 1.0 | 4.0 | 0.00 | 1.58 | 0.00 | 89 | 1013.7 |
| 20260508084009 | 68 | 5 | 1.0 | 4.0 | 0.00 | 1.58 | 0.00 | 89 | 1013.7 |
| 20260508083507 | 68 | 5 | 1.0 | 4.0 | 0.00 | 1.58 | 0.00 | 89 | 1013.7 |
| 20260508083021 | 68 | 9 | 1.0 | 4.0 | 0.00 | 1.58 | 0.00 | 89 | 1013.6 |
| 20260508082507 | 68 | 31 | 2.0 | 4.0 | 0.00 | 1.58 | 0.00 | 90 | 1013.6 |
| 20260508082008 | 68 | 339 | 1.0 | 4.0 | 0.00 | 1.58 | 0.00 | 90 | 1013.7 |
| 20260508081529 | 68 | 9 | 0.0 | 2.0 | 0.00 | 1.58 | 0.00 | 91 | 1013.5 |
| 20260508081006 | 68 | 29 | 1.0 | 2.0 | 0.00 | 1.58 | 0.00 | 91 | 1013.6 |
| 20260508080515 | 68 | 360 | 0.0 | 0.0 | 0.00 | 1.58 | 0.00 | 91 | 1013.7 |
| 20260508080025 | 68 | 360 | 0.0 | 0.0 | 0.00 | 1.58 | 0.00 | 91 | 1013.8 |
| 20260508075508 | 68 | 360 | 0.0 | 0.0 | 0.00 | 1.58 | 0.00 | 91 | 1013.6 |
| 20260508075005 | 68 | 360 | 0.0 | 3.0 | 0.00 | 1.58 | 0.00 | 91 | 1013.4 |
| 20260508074515 | 69 | 360 | 0.0 | 3.0 | 0.00 | 1.58 | 0.00 | 91 | 1013.5 |
| 20260508074004 | 69 | 18 | 1.0 | 3.0 | 0.00 | 1.58 | 0.00 | 91 | 1013.6 |
| 20260508073506 | 69 | 350 | 0.0 | 3.0 | 0.00 | 1.58 | 0.00 | 91 | 1013.7 |
| 20260508073024 | 69 | 352 | 2.0 | 3.0 | 0.00 | 1.58 | 0.00 | 91 | 1013.9 |
| 20260508072507 | 69 | 328 | 1.0 | 3.0 | 0.00 | 1.58 | 0.00 | 91 | 1014.0 |
| 20260508072006 | 69 | 318 | 0.0 | 3.0 | 0.00 | 1.58 | 0.00 | 91 | 1013.9 |
| 20260508071529 | 69 | 323 | 1.0 | 3.0 | 0.00 | 1.58 | 0.00 | 91 | 1014.0 |
| 20260508071006 | 69 | 311 | 2.0 | 4.0 | 0.00 | 1.58 | 0.00 | 90 | 1013.9 |
| 20260508070504 | 69 | 15 | 0.0 | 4.0 | 0.00 | 1.58 | 0.00 | 90 | 1013.6 |
| 20260508070010 | 69 | 352 | 2.0 | 5.0 | 0.00 | 1.58 | 0.00 | 90 | 1013.6 |
| 20260508065504 | 69 | 5 | 3.0 | 8.0 | 0.00 | 1.58 | 0.00 | 90 | 1013.6 |
| 20260508065005 | 69 | 9 | 2.0 | 8.0 | 0.00 | 1.58 | 0.00 | 90 | 1013.6 |
| 20260508064514 | 69 | 342 | 3.0 | 5.0 | 0.00 | 1.58 | 0.00 | 90 | 1013.8 |
| 20260508064008 | 69 | 322 | 1.0 | 5.0 | 0.00 | 1.58 | 0.00 | 90 | 1013.9 |
| 20260508063506 | 69 | 350 | 1.0 | 4.0 | 0.00 | 1.58 | 0.00 | 90 | 1013.9 |
| 20260508063021 | 70 | 333 | 1.0 | 4.0 | 0.00 | 1.58 | 0.00 | 90 | 1014.0 |
| 20260508062509 | 70 | 348 | 3.0 | 5.0 | 0.00 | 1.58 | 0.00 | 90 | 1014.0 |
| 20260508062007 | 70 | 13 | 1.0 | 5.0 | 0.00 | 1.58 | 0.00 | 89 | 1014.0 |
| 20260508061527 | 70 | 26 | 1.0 | 4.0 | 0.00 | 1.58 | 0.00 | 90 | 1013.9 |
| 20260508061008 | 70 | 15 | 2.0 | 4.0 | 0.00 | 1.58 | 0.00 | 90 | 1013.9 |
| 20260508060509 | 70 | 37 | 2.0 | 4.0 | 0.00 | 1.58 | 0.00 | 90 | 1013.9 |
| 20260508060009 | 70 | 360 | 2.0 | 5.0 | 0.00 | 1.58 | 0.00 | 90 | 1014.0 |
| 20260508055503 | 70 | 331 | 2.0 | 5.0 | 0.00 | 1.58 | 0.00 | 90 | 1014.0 |
| 20260508055003 | 70 | 17 | 2.0 | 4.0 | 0.00 | 1.58 | 0.00 | 90 | 1014.0 |
| 20260508054520 | 70 | 344 | 2.0 | 3.0 | 0.00 | 1.58 | 0.00 | 91 | 1014.0 |
| 20260508054005 | 71 | 340 | 0.0 | 2.0 | 0.00 | 1.58 | 0.00 | 92 | 1014.1 |